This is the latest recevied weather packets stored in our database for station/object W5ADC. If no packets are shown the sender has not sent any weather packets the latest 10 day(s).
| Time | Temp. | Humidity | Pressure | Rain* | Wind** | Luminosity | Snow |
|---|---|---|---|---|---|---|---|
| 1788560954 | 36.11° C | 47% | 1007.8 hPa | 0 mm | - | 273 W/m² | - |
| 1788560649 | 36.11° C | 46% | 1007.8 hPa | 0 mm | - | 283 W/m² | - |
| 1788560349 | 36.11° C | 47% | 1007.9 hPa | 0 mm | - | 306 W/m² | - |
| 1788560043 | 36.67° C | 46% | 1007.7 hPa | 0 mm | - | 315 W/m² | - |
| 1788559739 | 36.11° C | 46% | 1008 hPa | 0 mm | - | 346 W/m² | - |
| 1788559438 | 36.67° C | 45% | 1007.9 hPa | 0 mm | - | 391 W/m² | - |
| 1788559134 | 36.11° C | 45% | 1007.9 hPa | 0 mm | - | 398 W/m² | - |
| 1788558829 | 35.56° C | 46% | 1008.1 hPa | 0 mm | - | 144 W/m² | - |
| 1788558525 | 35.56° C | 46% | 1008 hPa | 0 mm | - | 101 W/m² | - |
| 1788558220 | 36.11° C | 45% | 1008 hPa | 0 mm | - | 117 W/m² | - |
| 1788557918 | 36.67° C | 45% | 1008.2 hPa | 0 mm | - | 464 W/m² | - |
| 1788557614 | 36.67° C | 45% | 1008.2 hPa | 0 mm | - | 469 W/m² | - |
| 1788557310 | 36.67° C | 45% | 1008.2 hPa | 0 mm | - | 483 W/m² | - |
| 1788557009 | 36.11° C | 45% | 1008 hPa | 0 mm | - | 501 W/m² | - |
| 1788556705 | 35.56° C | 45% | 1008.3 hPa | 0 mm | - | 193 W/m² | - |
| 1788556400 | 35.56° C | 46% | 1008.3 hPa | 0 mm | - | 125 W/m² | - |
| 1788556095 | 36.67° C | 44% | 1008.4 hPa | 0 mm | - | 233 W/m² | - |
| 1788555794 | 36.11° C | 45% | 1008.4 hPa | 0 mm | - | 567 W/m² | - |
| 1788555491 | 36.11° C | 46% | 1008.3 hPa | 0 mm | - | 602 W/m² | - |
| 1788555186 | 35.56° C | 45% | 1008.6 hPa | 0 mm | - | 618 W/m² | - |
| 1788554883 | 35° C | 48% | 1008.5 hPa | 0 mm | - | 171 W/m² | - |
| 1788554579 | 36.11° C | 46% | 1008.5 hPa | 0 mm | - | 158 W/m² | - |
| 1788554274 | 36.11° C | 46% | 1008.8 hPa | 0 mm | - | 649 W/m² | - |
| 1788553970 | 36.11° C | 46% | 1008.8 hPa | 0 mm | - | 687 W/m² | - |
| 1788553666 | 35.56° C | 47% | 1008.7 hPa | 0 mm | - | 722 W/m² | - |
* Rain latest hour (hover to see other rain measurements)
** Current wind speed in m/s (hover to see current wind gust speed)